Location: Black Swamp Observatory
(41.3920°N, 84.1250°W)
Time: 03:50:07
(UTC-04:00)

Courier 1B Rocket - Pass Details

Date: 28 January 2022
Orbit: 920 x 1202 km, 28.2° (Epoch: 28 May)

Event Time Altitude Azimuth Distance (km) Brightness Sun altitude
Exits shadow 04:28:54 13° 154° (SSE) 2,552 7.3 -38.0°
Drops below altitude 10° 04:29:53 10° 148° (SSE) 2,776 7.6 -37.9°
Sets 04:33:06 0° 133° (SE) 3,677 8.5 -37.3°
